Lid_Strength_Index
17 17 16 16 16 15 14 12 11 10 10 10 10 10 10 10 10 9 9 10 10 10
17 17 17 16 16 15 13 11 10 10 10 10 10 9 9 10 10 9 9 10 10 10
17 17 16 16 16 14 12 11 11 11 10 10 10 10 10 10 10 10 9 9 9 9
17 17 17 16 15 13 12 12 11 11 11 11 11 11 11 11 9 9 10 10 10 9
17 17 17 16 14 13 12 12 11 11 12 12 11 11 11 12 10 10 11 11 10 10
18 18 17 16 14 13 12 12 12 12 12 12 12 12 12 12 12 11 11 11 10 10
18 17 16 14 13 13 12 13 13 13 13 12 12 12 12 12 12 12 10 10 10 10
17 17 16 14 13 13 13 13 13 13 13 13 12 12 12 11 11 11 10 9 9 9
18 17 15 14 13 13 13 13 13 13 13 13 12 10 9 9 10 10 10 10 9 9
18 17 15 14 14 14 14 14 13 13 12 12 12 9 8 8 9 9 9 9 9 8
17 16 15 14 14 14 14 14 13 13 12 12 11 9 8 8 9 9 9 9 9 9
17 16 15 15 15 15 14 13 13 12 12 12 12 9 8 8 10 10 10 9 9 9
16 15 15 15 15 14 13 12 11 11 11 10 11 9 9 8 9 9 9 9 9 7
15 15 15 15 14 13 13 12 12 12 11 11 11 11 8 7 8 9 9 9 9 8